When you browse on this site, cookies collect data to enhance your experience and personalize the content and advertising you see.
Visit our Privacy Policy to learn more. By continuing to use the site, you agree to this use of cookies and data.
  • In Spain
  • List of Countries
  • For 7 days
  • Water Temperature
  • Weather Map
  • Weather Widgets
  • user-avatar
    Login

    Hourly Weather Konstantyna

    Today, 18 August, Sunday

    Time Temperature Precipitation Wind Pressure Humidity
    00:00 +28°C° 0 mm 1 mps 710 mmHg 47%
    01:00 +28°C° 0 mm 1 mps 710 mmHg 46%
    02:00 +27°C° 0 mm 1 mps 710 mmHg 45%
    03:00 +27°C° 0 mm 1 mps 709 mmHg 45%
    04:00 +28°C° 0 mm 1 mps 709 mmHg 42%
    05:00 +28°C° 0 mm 1 mps 710 mmHg 40%
    06:00 +29°C° 0 mm 1 mps 710 mmHg 37%
    07:00 +31°C° 0 mm 2 mps 710 mmHg 32%
    08:00 +34°C° 0 mm 3 mps 711 mmHg 27%
    09:00 +37°C° 0 mm 4 mps 711 mmHg 21%
    10:00 +39°C° 0 mm 5 mps 711 mmHg 20%
    11:00 +40°C° 0 mm 5 mps 711 mmHg 18%
    12:00 +41°C° 0 mm 5 mps 711 mmHg 17%
    13:00 +41°C° 0 mm 6 mps 710 mmHg 17%
    14:00 +41°C° 0 mm 6 mps 710 mmHg 18%
    15:00 +40°C° 0 mm 6 mps 709 mmHg 19%
    16:00 +39°C° 0 mm 5 mps 709 mmHg 22%
    17:00 +36°C° 0 mm 4 mps 709 mmHg 26%
    18:00 +35°C° 0 mm 2 mps 709 mmHg 30%
    19:00 +32°C° 0 mm 2 mps 709 mmHg 33%
    20:00 +31°C° 0 mm 1 mps 709 mmHg 36%
    21:00 +30°C° 0 mm 1 mps 709 mmHg 39%
    22:00 +30°C° 0 mm 1 mps 709 mmHg 40%
    23:00 +29°C° 0 mm 1 mps 709 mmHg 40%

    Tomorrow, 19 August, Monday

    Time Temperature Precipitation Wind Pressure Humidity
    00:00 +27°C° 0 mm 0 mps 709 mmHg 41%
    01:00 +26°C° 0 mm 0 mps 709 mmHg 41%
    02:00 +26°C° 0 mm 0 mps 708 mmHg 42%
    03:00 +26°C° 0 mm 0 mps 708 mmHg 42%
    04:00 +26°C° 0 mm 0 mps 709 mmHg 42%
    05:00 +26°C° 0 mm 0 mps 709 mmHg 42%
    06:00 +28°C° 0 mm 1 mps 709 mmHg 42%
    07:00 +30°C° 0 mm 1 mps 710 mmHg 36%
    08:00 +32°C° 0 mm 2 mps 710 mmHg 31%
    09:00 +35°C° 0 mm 2 mps 710 mmHg 25%
    10:00 +36°C° 0 mm 2 mps 711 mmHg 22%
    11:00 +37°C° 0 mm 3 mps 711 mmHg 20%
    12:00 +39°C° 0 mm 3 mps 711 mmHg 17%
    13:00 +38°C° 0 mm 4 mps 711 mmHg 18%
    14:00 +38°C° 0 mm 4 mps 710 mmHg 19%
    15:00 +39°C° 0 mm 5 mps 710 mmHg 21%
    16:00 +36°C° 0 mm 5 mps 710 mmHg 26%
    17:00 +34°C° 0 mm 4 mps 710 mmHg 31%
    18:00 +32°C° 0 mm 4 mps 710 mmHg 36%
    19:00 +30°C° 0 mm 3 mps 710 mmHg 42%
    20:00 +29°C° 0 mm 2 mps 710 mmHg 48%
    21:00 +28°C° 0 mm 1 mps 710 mmHg 53%
    22:00 +27°C° 0 mm 1 mps 710 mmHg 54%
    23:00 +27°C° 0 mm 1 mps 710 mmHg 55%

    Day after tomorrow, 20 August, Tuesday

    Time Temperature Precipitation Wind Pressure Humidity
    00:00 +25°C° 0 mm 0 mps 710 mmHg 55%
    01:00 +24°C° 0 mm 0 mps 709 mmHg 55%
    02:00 +24°C° 0 mm 0 mps 709 mmHg 54%
    03:00 +24°C° 0 mm 0 mps 709 mmHg 54%
    04:00 +24°C° 0 mm 0 mps 709 mmHg 51%
    05:00 +25°C° 0 mm 0 mps 709 mmHg 49%
    06:00 +25°C° 0 mm 0 mps 709 mmHg 47%
    07:00 +27°C° 0 mm 0 mps 710 mmHg 40%
    08:00 +32°C° 0 mm 1 mps 710 mmHg 34%
    09:00 +34°C° 0 mm 1 mps 711 mmHg 28%
    10:00 +36°C° 0 mm 2 mps 711 mmHg 24%
    11:00 +38°C° 0 mm 2 mps 711 mmHg 20%
    12:00 +39°C° 0 mm 3 mps 711 mmHg 16%
    13:00 +40°C° 0 mm 4 mps 711 mmHg 17%
    14:00 +40°C° 0 mm 5 mps 710 mmHg 18%
    15:00 +39°C° 0 mm 6 mps 710 mmHg 19%
    16:00 +36°C° 0 mm 5 mps 710 mmHg 25%
    17:00 +34°C° 0 mm 5 mps 710 mmHg 30%
    18:00 +33°C° 0 mm 4 mps 710 mmHg 35%
    19:00 +30°C° 0 mm 3 mps 710 mmHg 44%
    20:00 +28°C° 0 mm 2 mps 711 mmHg 53%
    21:00 +27°C° 0 mm 1 mps 711 mmHg 61%
    22:00 +26°C° 0 mm 1 mps 711 mmHg 65%
    23:00 +26°C° 0 mm 1 mps 711 mmHg 69%

    21 August, Wednesday

    Time Temperature Precipitation Wind Pressure Humidity
    00:00 +25°C° 0 mm 1 mps 711 mmHg 72%
    01:00 +24°C° 0 mm 1 mps 711 mmHg 75%
    02:00 +24°C° 0 mm 1 mps 710 mmHg 78%
    03:00 +24°C° 0 mm 1 mps 710 mmHg 81%
    04:00 +23°C° 0 mm 1 mps 711 mmHg 81%
    05:00 +23°C° 0 mm 1 mps 711 mmHg 82%
    06:00 +23°C° 0 mm 1 mps 711 mmHg 83%
    07:00 +25°C° 0 mm 2 mps 712 mmHg 74%
    08:00 +26°C° 0 mm 2 mps 712 mmHg 65%
    09:00 +28°C° 0 mm 2 mps 712 mmHg 55%
    10:00 +30°C° 0 mm 2 mps 712 mmHg 48%
    11:00 +31°C° 0 mm 3 mps 712 mmHg 41%
    12:00 +34°C° 0 mm 3 mps 712 mmHg 34%
    13:00 +34°C° 0 mm 3 mps 712 mmHg 35%
    14:00 +34°C° 0 mm 4 mps 712 mmHg 35%
    15:00 +34°C° 0 mm 4 mps 711 mmHg 36%
    16:00 +32°C° 0 mm 4 mps 711 mmHg 44%
    17:00 +30°C° 0 mm 4 mps 711 mmHg 52%
    18:00 +28°C° 0 mm 4 mps 711 mmHg 59%
    19:00 +27°C° 0 mm 3 mps 711 mmHg 65%
    20:00 +26°C° 0 mm 2 mps 711 mmHg 71%
    21:00 +24°C° 0 mm 2 mps 712 mmHg 77%
    22:00 +24°C° 0 mm 1 mps 712 mmHg 78%
    23:00 +24°C° 0 mm 1 mps 711 mmHg 79%

    22 August, Thursday

    Time Temperature Precipitation Wind Pressure Humidity
    00:00 +23°C° 0 mm 1 mps 711 mmHg 80%
    01:00 +23°C° 0 mm 1 mps 711 mmHg 80%
    02:00 +23°C° 0 mm 1 mps 711 mmHg 81%
    03:00 +23°C° 0 mm 1 mps 710 mmHg 81%
    04:00 +23°C° 0 mm 1 mps 711 mmHg 80%
    05:00 +23°C° 0 mm 1 mps 711 mmHg 80%
    06:00 +23°C° 0 mm 1 mps 711 mmHg 79%
    07:00 +25°C° 0 mm 1 mps 712 mmHg 71%
    08:00 +27°C° 0 mm 1 mps 712 mmHg 63%
    09:00 +29°C° 0 mm 1 mps 713 mmHg 54%
    10:00 +30°C° 0 mm 2 mps 712 mmHg 49%
    11:00 +32°C° 0 mm 2 mps 712 mmHg 43%
    12:00 +34°C° 0 mm 2 mps 712 mmHg 38%
    13:00 +34°C° 0 mm 3 mps 712 mmHg 38%
    14:00 +34°C° 0 mm 4 mps 712 mmHg 39%
    15:00 +34°C° 0 mm 5 mps 711 mmHg 40%
    16:00 +32°C° 0.2 mm 4 mps 711 mmHg 48%
    17:00 +29°C° 0.2 mm 4 mps 711 mmHg 55%
    18:00 +27°C° 0.2 mm 3 mps 711 mmHg 63%
    19:00 +26°C° 0.1 mm 3 mps 711 mmHg 65%
    20:00 +26°C° 0.1 mm 2 mps 711 mmHg 68%
    21:00 +25°C° 0.1 mm 1 mps 711 mmHg 70%
    22:00 +25°C° 0 mm 1 mps 711 mmHg 70%
    23:00 +25°C° 0 mm 1 mps 711 mmHg 70%

    23 August, Friday

    Time Temperature Precipitation Wind Pressure Humidity
    00:00 +24°C° 0 mm 1 mps 711 mmHg 70%
    01:00 +24°C° 0 mm 1 mps 711 mmHg 71%
    02:00 +22°C° 0 mm 0 mps 710 mmHg 72%
    03:00 +22°C° 0 mm 0 mps 710 mmHg 72%
    04:00 +22°C° 0 mm 0 mps 710 mmHg 71%
    05:00 +22°C° 0 mm 0 mps 711 mmHg 70%
    06:00 +23°C° 0 mm 0 mps 711 mmHg 69%
    07:00 +24°C° 0 mm 0 mps 711 mmHg 62%
    08:00 +26°C° 0 mm 0 mps 711 mmHg 54%
    09:00 +30°C° 0 mm 1 mps 712 mmHg 47%
    10:00 +32°C° 0 mm 1 mps 712 mmHg 41%
    11:00 +35°C° 0 mm 2 mps 711 mmHg 34%
    12:00 +37°C° 0 mm 2 mps 711 mmHg 28%
    13:00 +36°C° 0 mm 3 mps 711 mmHg 30%
    14:00 +36°C° 0 mm 5 mps 711 mmHg 32%
    15:00 +36°C° 0 mm 6 mps 710 mmHg 34%
    16:00 +34°C° 0.1 mm 5 mps 710 mmHg 43%
    17:00 +32°C° 0.1 mm 4 mps 709 mmHg 53%
    18:00 +28°C° 0.1 mm 4 mps 709 mmHg 62%
    19:00 +28°C° 0.2 mm 3 mps 709 mmHg 66%
    20:00 +27°C° 0.2 mm 2 mps 709 mmHg 70%
    21:00 +26°C° 0.2 mm 1 mps 710 mmHg 74%
    22:00 +25°C° 0.1 mm 1 mps 710 mmHg 76%
    23:00 +25°C° 0.1 mm 1 mps 709 mmHg 78%
    Show more